FREGAT DEB, 46002

Orbit data source: Space-Track

FREGAT DEB, 46002 is space debris in LEO originally from a launch on Mon, 18 Jul 2011 UTC launched from the Tyuratam Missile And Space Complex (TTMTR). Debris objects in space refer to the collection of defunct objects orbiting the Earth. Examples of debris include non-operational satellites, rocket bodies, and fragments generated from explosions, collisions, or faulty payload assembly.

Loading next visibility...
Identifier
46002, 2011-037HD
Orbit
LEO
Country
Flag of CISCIS
Related business
Manufacturer
Lavochkin
Mission
Spacecraft
Bus & Motor
Unknown
Mass
Unknown
Launch date (UTC)
2011-07-18 (14 years ago)
Launch vehicle
Unknown
Launch site
Tyuratam Missile And Space Complex (TTMTR)
Object type
Payload
Rocket body
Debris
Shape & HBR
Unknown
Radar Cross Section
Small (<0.1 m²)

Expand to show TLE details & history
Last TLE update: 22 hours ago

TLE from 22 hours ago
0 FREGAT DEB
1 46002U 11037HD  25258.23433972  .00140513  00000-0  13500+0 0  9991
2 46002  51.2521 196.4901 1584761 337.7312  16.1445 11.42868792196610
Epoch: 2025-09-15T05:37Z
TLE epoch observation values (Epoch: 2025-09-15T05:37:26.951Z)
Latitude
-0.00008°
Longitude
117.68582°
Altitude
701.335 km
Speed
8.048 km/s
True Right ascension
13h 05m 57s
True Declination
0° 00' 00"
Sunlit
Object was in daylight at epoch
Visualization orbit readout
Latitude
Unknown
Longitude
Unknown
Altitude
Unknown
Speed
Unknown
Apparent Right ascension
Unknown
Apparent Declination
Unknown
Sunlit
N/A
Visualization observer readout
Local Sidereal Time
20:41:51
Azimuth
Unknown
Elevation
Unknown
Doppler factor
Unknown
Orbital elements
Apogee altitude
3,267.185 km
Perigee altitude
628.282 km
Semi-major axis
8,325.87 km
Eccentricity
0.15848
Inclination
51.2521°
RAAN
196.4901°
Arg. of periapsis
337.7312°
True anomaly
22.35421°
Mean anomaly
16.1445°
Eccentric anomaly
19.1184°
Mean motion
2.85692 °/min
Orbital period
126.01 mins
BSTAR
0.135
Loading maneuver chart data...
Computing Atmospheric mass density...
Loading historical data...
Loading historical data...
Loading historical data...
Loading historical data...
Loading historical data...
Loading historical data...
Loading historical data...

Documentation

Showing up to 5 results
|